Mansfield, OH

5:52 AM EDT on May 30, 2017 (GMT -0400)
Mansfield Lahm Regional

Weather History for KMFD - November, 2013

Change the Weather History Date:

Saturday, November 2, 2013

  Actual Average Record
Temperature  
Mean Temperature 45 °F 46 °F  
Max Temperature 48 °F 56 °F 78 °F (2016)
Min Temperature 41 °F 37 °F 20 °F (1934)
Degree Days  
Heating Degree Days 20 19  
Month to date heating degree days 31 37  
Since 1 July heating degree days 547 605  
Cooling Degree Days 0 0  
Month to date cooling degree days 0 0  
Year to date cooling degree days 741 632  
Moisture  
Dew Point 42 °F    
Average Humidity 88    
Maximum Humidity 100    
Minimum Humidity 76    
Precipitation  
Precipitation 0.20 in 0.13 in 1.59 in (1999)
Month to date precipitation 0.41 0.25  
Year to date precipitation 37.03 37.34  
Snow  
Snow 0.00 in 0.10 in - ()
Month to date snowfall 0.0 0.1  
Since 1 July snowfall T 0.6  
Since 1 September snowfall T 0.6  
Snow Depth 0.00 in    
Sea Level Pressure  
Sea Level Pressure 29.85 in    
Wind  
Wind Speed 8 mph (West)    
Max Wind Speed 18 mph    
Max Gust Speed 25 mph    
Visibility 9 miles    
Events Rain    
T = Trace of Precipitation, MM = Missing Value Source: NWS Daily Summary

Daily Weather History Graph

Daily Weather History Graph

Search for Another Location

Airport or City:

Trip Planner

Search our weather history database for the weather conditions in past years. The results will help you decide how hot, cold, wet, or windy it might be!

Date:

Astronomy

Nov. 02, 2013 Rise Set
Actual Time 8:02 AM EDT 6:24 PM EDT
Civil Twilight 7:33 AM EDT 6:53 PM EDT
Nautical Twilight 7:01 AM EDT 7:25 PM EDT
Astronomical Twilight 6:29 AM EDT 7:57 PM EDT
Moon 6:57 AM EDT (11/2) 5:55 PM EDT (11/2)
Length of Visible Light 11h 19m
Length of Day
10h 22m
Waning Crescent, 1% of the Moon is Illuminated
Nov 2
Waning Crescent
Nov 3
New
Nov 10
First Quarter
Nov 17
Full
Nov 25
Last Quarter

Hourly Weather History & Observations

Time (EDT) Temp. Windchill Dew Point Humidity Pressure Visibility Wind Dir Wind Speed Gust Speed Precip Events Conditions
12:52 AM 48.0 °F - 41.0 °F 77% 29.70 in 10.0 mi WSW 3.5 mph - N/A   Overcast
1:52 AM 45.0 °F 43.5 °F 41.0 °F 86% 29.71 in 10.0 mi SW 3.5 mph - N/A   Overcast
2:52 AM 46.9 °F - 41.0 °F 80% 29.70 in 10.0 mi WSW 5.8 mph - N/A   Overcast
3:52 AM 46.0 °F 41.0 °F 39.9 °F 79% 29.70 in 10.0 mi SW 10.4 mph - N/A   Overcast
4:00 AM 46.4 °F 42.9 °F 39.2 °F 76% 29.69 in 10.0 mi WSW 6.9 mph - N/A   Overcast
4:47 AM 44.6 °F 40.7 °F 42.8 °F 93% 29.69 in 10.0 mi WSW 6.9 mph - 0.00 in   Overcast
4:52 AM 45.0 °F 39.3 °F 42.1 °F 90% 29.70 in 8.0 mi WSW 11.5 mph - 0.00 in   Overcast
5:05 AM 44.6 °F 39.2 °F 42.8 °F 93% 29.69 in 10.0 mi WSW 10.4 mph - N/A   Overcast
5:52 AM 46.0 °F 40.6 °F 42.1 °F 86% 29.71 in 10.0 mi WSW 11.5 mph - N/A   Overcast
6:52 AM 45.0 °F 40.1 °F 43.0 °F 93% 29.73 in 7.0 mi WSW 9.2 mph 18.4 mph N/A   Overcast
7:08 AM 44.6 °F 38.8 °F 42.8 °F 93% 29.72 in 3.0 mi WSW 11.5 mph - 0.01 in Rain Light Rain
7:52 AM 44.1 °F 40.8 °F 43.0 °F 96% 29.74 in 7.0 mi WSW 5.8 mph - 0.02 in Rain Light Rain
8:52 AM 44.1 °F 40.8 °F 43.0 °F 96% 29.75 in 8.0 mi West 5.8 mph - 0.01 in   Overcast
9:52 AM 45.0 °F 40.6 °F 43.0 °F 93% 29.77 in 10.0 mi West 8.1 mph - 0.00 in   Overcast
10:37 AM 44.6 °F 40.2 °F 42.8 °F 93% 29.77 in 10.0 mi West 8.1 mph - N/A   Overcast
10:52 AM 45.0 °F 39.7 °F 43.0 °F 93% 29.78 in 10.0 mi WSW 10.4 mph - N/A   Overcast
11:52 AM 45.0 °F 39.7 °F 43.0 °F 93% 29.81 in 7.0 mi WSW 10.4 mph - 0.01 in Rain Light Rain
12:00 PM 46.4 °F 41.9 °F 42.8 °F 87% 29.79 in 10.0 mi WSW 9.2 mph - 0.00 in   Overcast
12:25 PM 46.4 °F 41.9 °F 42.8 °F 87% 29.80 in 10.0 mi WSW 9.2 mph 19.6 mph 0.00 in   Overcast
12:52 PM 46.0 °F 41.4 °F 42.1 °F 86% 29.82 in 9.0 mi WSW 9.2 mph - 0.00 in   Overcast
12:59 PM 46.4 °F 41.9 °F 42.8 °F 87% 29.80 in 7.0 mi WSW 9.2 mph - N/A   Overcast
1:30 PM 46.4 °F 42.9 °F 42.8 °F 87% 29.81 in 5.0 mi WSW 6.9 mph - 0.00 in Rain Light Rain
1:52 PM 46.0 °F 41.0 °F 43.0 °F 89% 29.82 in 7.0 mi WSW 10.4 mph - 0.01 in Rain Light Rain
2:52 PM 46.0 °F 39.9 °F 43.0 °F 89% 29.82 in 9.0 mi West 13.8 mph 18.4 mph 0.00 in   Overcast
3:16 PM 46.4 °F 42.4 °F 42.8 °F 87% 29.82 in 7.0 mi West 8.1 mph - 0.01 in Rain Light Rain
3:23 PM 46.4 °F 41.1 °F 44.6 °F 93% 29.82 in 9.0 mi West 11.5 mph - 0.01 in   Overcast
3:52 PM 43.0 °F 37.7 °F 39.9 °F 89% 29.86 in 10.0 mi WNW 9.2 mph 17.3 mph 0.03 in Rain Light Rain
4:10 PM 42.8 °F 40.1 °F 41.0 °F 93% 29.85 in 10.0 mi West 4.6 mph - 0.01 in Rain Light Rain
4:43 PM 42.8 °F 38.0 °F 42.8 °F 100% 29.86 in 10.0 mi WSW 8.1 mph - 0.01 in   Overcast
4:52 PM 43.0 °F 40.3 °F 42.1 °F 97% 29.88 in 9.0 mi West 4.6 mph - 0.02 in Rain Light Rain
4:59 PM 42.8 °F 39.3 °F 42.8 °F 100% 29.87 in 9.0 mi West 5.8 mph - 0.00 in Rain Light Rain
5:42 PM 42.8 °F 41.1 °F 42.8 °F 100% 29.88 in 10.0 mi Variable 3.5 mph - 0.02 in Rain Light Rain
5:52 PM 44.1 °F 41.5 °F 43.0 °F 96% 29.91 in 7.0 mi West 4.6 mph - 0.02 in Rain Light Rain
6:19 PM 42.8 °F 38.6 °F 41.0 °F 93% 29.90 in 5.0 mi WNW 6.9 mph 16.1 mph 0.05 in Rain Light Rain
6:48 PM 42.8 °F 40.1 °F 42.8 °F 100% 29.91 in 10.0 mi West 4.6 mph - 0.06 in   Overcast
6:52 PM 43.0 °F 40.3 °F 42.1 °F 97% 29.93 in 10.0 mi West 4.6 mph - 0.06 in Rain Light Rain
7:52 PM 43.0 °F 39.5 °F 42.1 °F 97% 29.96 in 10.0 mi WNW 5.8 mph - 0.00 in   Overcast
8:29 PM 42.8 °F 37.0 °F 41.0 °F 93% 29.96 in 10.0 mi NW 10.4 mph - N/A   Mostly Cloudy
8:39 PM 42.8 °F 36.6 °F 41.0 °F 93% 29.97 in 10.0 mi NNW 11.5 mph - N/A   Overcast
8:52 PM 43.0 °F 37.2 °F 41.0 °F 93% 29.99 in 9.0 mi NNW 10.4 mph - 0.00 in Rain Light Rain
9:04 PM 42.8 °F 38.0 °F 41.0 °F 93% 29.97 in 10.0 mi NNW 8.1 mph - 0.00 in Rain Light Rain
9:13 PM 42.8 °F 38.0 °F 41.0 °F 93% 29.97 in 10.0 mi NNW 8.1 mph - 0.00 in   Overcast
9:52 PM 42.1 °F 37.7 °F 41.0 °F 96% 30.02 in 10.0 mi NW 6.9 mph - 0.00 in   Mostly Cloudy
10:03 PM 42.8 °F 37.5 °F 41.0 °F 93% 30.00 in 10.0 mi NNW 9.2 mph - N/A   Overcast
10:30 PM 42.8 °F 37.5 °F 39.2 °F 87% 30.01 in 9.0 mi North 9.2 mph - 0.00 in Rain Light Rain
10:52 PM 42.1 °F 37.1 °F 41.0 °F 96% 30.04 in 10.0 mi NNW 8.1 mph - 0.01 in Rain Light Rain
11:04 PM 41.0 °F 37.1 °F 39.2 °F 93% 30.03 in 10.0 mi NNW 5.8 mph - 0.01 in Rain Light Rain
11:18 PM 41.0 °F 37.1 °F 39.2 °F 93% 30.03 in 10.0 mi NW 5.8 mph - 0.01 in   Overcast
11:25 PM 42.8 °F 39.3 °F 41.0 °F 93% 30.03 in 10.0 mi NNW 5.8 mph - 0.01 in   Overcast
11:52 PM 42.1 °F 36.6 °F 39.9 °F 92% 30.06 in 10.0 mi NNW 9.2 mph - 0.01 in   Overcast